Skip Page Navigation
NASA JPL Caltech
NASA Logo - Jet Propulsion Laboratory + View the NASA Portal
+ Center for Near-Earth Object Studies
JPL Home Earth Solar System Stars & Galaxies Technology
JPL Solar System Dynamics
BODIES ORBITS EPHEMERIDES TOOLS PHYSICAL DATA DISCOVERY FAQ SITE MAP
IMPORTANT: The SSD Announcement email list is now available. Major changes are coming in the near future, including possible hostname and/or URL changes. To be notified of such changes, subscribe to this email list.

Please visit this page for more details.


JPL Small-Body Database Browser
Search: [ help ]  
(2014 TJ33)
Classification: Apollo [NEO]          SPK-ID: 3693145
Ephemeris | Orbit Diagram | Orbital Elements | Mission Design | Physical Parameters | Close-Approach Data ]

[ hide orbit diagram ]

For accurate long-term ephemerides, please instead use our Horizons system.This orbit viewer was implemented using two-body methods, and hence should not be used for determining accurate long-term trajectories (over several years or decades) or planetary encounter circumstances.


[ revert to old Java-based viewer ]

Orbital Elements at Epoch 2458600.5 (2019-Apr-27.0) TDB
Reference: JPL 16 (heliocentric ecliptic J2000)
 Element Value Uncertainty (1-sigma)   Units 
e .4939405904921289 0.00018657  
a 1.600658124863151 0.00046403 au
q .8100281054922224 6.3817e-05 au
i 2.704146906711442 0.00091564 deg
node 46.30698310318515 0.0013739 deg
peri 57.20400475983314 0.0027281 deg
M 53.68911046624385 0.35204 deg
tp 2458490.186158164939
(2019-Jan-06.68615816)
0.67535 TDB
period 739.6841317680369
2.03
0.32165
0.0008806
d
yr
n .4866942314140316 0.00021164 deg/d
Q 2.391288144234079 0.00069323 au
  Orbit Determination Parameters
   # obs. used (total)      57  
   data-arc span      31 days  
   first obs. used      2014-10-01  
   last obs. used      2014-11-01  
   planetary ephem.      DE431  
   SB-pert. ephem.      SB431-N16  
   condition code      7  
   norm. resid. RMS      .46686  
   source      ORB  
   producer      Otto Matic  
   solution date      2018-Feb-10 07:05:54  

Additional Information
 Earth MOID = .00512669 au 
 Jupiter MOID = 2.78545 au 
 T_jup = 4.214 
[ show covariance matrix ]

Ephemeris | Orbit Diagram | Orbital Elements | Mission Design | Physical Parameters | Close-Approach Data ]

Physical Parameter Table
Parameter Symbol Value Units Sigma Reference Notes
absolute magnitude H 23.0   n/a MPO313335  

[ show close-approach data ]
Ephemeris | Orbit Diagram | Orbital Elements | Mission Design | Physical Parameters | Close-Approach Data ]
ABOUT SSD CREDITS/AWARDS PRIVACY/COPYRIGHT GLOSSARY LINKS
FirstGov
(server date/time)  
NASA Home Page
Site Manager:   Ryan S. Park
Webmaster  Alan B. Chamberlin